TimeEST,TemperatureF,Dew PointF,Humidity,Sea Level PressureIn,VisibilityMPH,Wind Direction,Wind SpeedMPH,Gust SpeedMPH,PrecipitationIn,Events,Conditions,WindDirDegrees,DateUTC
12:34 AM,30.9,22.8,72,30.25,10.0,WNW,4.6,-,N/A,,Overcast,290,2013-01-07 05:34:00
12:55 AM,31.1,22.6,71,30.25,10.0,West,4.6,-,N/A,,Overcast,280,2013-01-07 05:55:00
1:14 AM,31.1,22.1,69,30.25,10.0,West,3.5,-,N/A,,Overcast,280,2013-01-07 06:14:00
1:34 AM,30.9,22.1,70,30.26,10.0,West,4.6,-,N/A,,Overcast,270,2013-01-07 06:34:00
1:55 AM,30.9,21.6,68,30.28,10.0,WNW,5.8,-,N/A,,Overcast,290,2013-01-07 06:55:00
2:35 AM,31.1,20.3,64,30.28,10.0,Calm,Calm,-,N/A,,Overcast,0,2013-01-07 07:35:00
2:55 AM,31.3,20.1,63,30.28,10.0,Calm,Calm,-,N/A,,Overcast,0,2013-01-07 07:55:00
3:14 AM,30.9,20.3,65,30.28,10.0,Calm,Calm,-,N/A,,Overcast,0,2013-01-07 08:14:00
3:35 AM,30.7,20.3,65,30.28,10.0,Calm,Calm,-,N/A,,Overcast,0,2013-01-07 08:35:00
3:55 AM,30.7,20.3,65,30.28,10.0,Calm,Calm,-,N/A,,Overcast,0,2013-01-07 08:55:00
4:14 AM,30.7,20.7,66,30.29,10.0,SSW,3.5,-,N/A,,Overcast,210,2013-01-07 09:14:00
4:35 AM,30.4,21.4,69,30.30,10.0,West,3.5,-,N/A,,Overcast,260,2013-01-07 09:35:00
4:54 AM,31.1,21.2,67,30.29,10.0,SW,3.5,-,N/A,,Overcast,230,2013-01-07 09:54:00
5:14 AM,30.7,20.8,67,30.30,10.0,SW,5.8,-,N/A,,Overcast,230,2013-01-07 10:14:00
5:35 AM,30.2,19.9,66,30.29,10.0,SW,4.6,-,N/A,,Overcast,230,2013-01-07 10:35:00
5:54 AM,29.3,19.8,68,30.29,10.0,SW,4.6,-,N/A,,Overcast,230,2013-01-07 10:54:00
6:14 AM,29.7,19.4,66,30.30,10.0,SW,4.6,-,N/A,,Overcast,230,2013-01-07 11:14:00
6:35 AM,29.5,19.6,67,30.30,10.0,SSW,3.5,-,N/A,,Overcast,210,2013-01-07 11:35:00
6:54 AM,29.3,19.6,67,30.31,10.0,SSW,4.6,-,N/A,,Overcast,200,2013-01-07 11:54:00
7:35 AM,28.6,19.2,68,30.31,10.0,South,5.8,-,N/A,,Overcast,180,2013-01-07 12:35:00
7:54 AM,28.4,19.0,68,30.31,10.0,South,6.9,-,N/A,,Mostly Cloudy,180,2013-01-07 12:54:00
8:15 AM,28.4,19.2,69,30.32,10.0,South,6.9,-,N/A,,Scattered Clouds,190,2013-01-07 13:15:00
8:35 AM,28.4,19.6,70,30.32,10.0,South,8.1,-,N/A,,Clear,190,2013-01-07 13:35:00
8:54 AM,28.6,19.4,69,30.33,10.0,SSW,8.1,-,N/A,,Clear,200,2013-01-07 13:54:00
9:15 AM,29.5,21.2,71,30.33,10.0,SW,9.2,-,N/A,,Clear,220,2013-01-07 14:15:00
9:35 AM,29.7,21.2,71,30.33,10.0,SSW,9.2,-,N/A,,Clear,210,2013-01-07 14:35:00
9:54 AM,29.8,21.9,72,30.33,10.0,SSW,15.0,-,N/A,,Clear,210,2013-01-07 14:54:00
10:15 AM,30.6,22.3,71,30.33,10.0,SSW,11.5,17.3,N/A,,Clear,210,2013-01-07 15:15:00
10:34 AM,30.9,22.5,71,30.33,10.0,SSW,11.5,-,N/A,,Clear,200,2013-01-07 15:34:00
10:54 AM,31.3,22.1,69,30.32,10.0,SSW,12.7,18.4,N/A,,Clear,210,2013-01-07 15:54:00
11:15 AM,32.0,22.3,67,30.31,10.0,SSW,11.5,-,N/A,,Clear,200,2013-01-07 16:15:00
11:34 AM,32.9,22.1,65,30.30,10.0,SSW,10.4,18.4,N/A,,Clear,210,2013-01-07 16:34:00
11:54 AM,33.1,21.9,64,30.28,10.0,SSW,15.0,19.6,N/A,,Clear,210,2013-01-07 16:54:00
12:15 PM,33.8,21.7,61,30.27,10.0,SW,20.7,26.5,N/A,,Clear,220,2013-01-07 17:15:00
12:34 PM,34.3,21.2,59,30.25,10.0,SW,18.4,21.9,N/A,,Clear,220,2013-01-07 17:34:00
12:55 PM,34.9,21.0,57,30.24,10.0,SSW,16.1,21.9,N/A,,Clear,210,2013-01-07 17:55:00
1:15 PM,35.2,21.0,56,30.23,10.0,SSW,13.8,19.6,N/A,,Clear,210,2013-01-07 18:15:00
1:34 PM,35.4,20.1,54,30.21,10.0,SSW,18.4,25.3,N/A,,Clear,210,2013-01-07 18:34:00
2:15 PM,36.5,21.0,54,30.19,10.0,South,12.7,18.4,N/A,,Clear,190,2013-01-07 19:15:00
2:34 PM,36.1,21.0,54,30.18,10.0,South,15.0,-,N/A,,Clear,190,2013-01-07 19:34:00
2:55 PM,36.1,21.0,54,30.18,10.0,South,11.5,20.7,N/A,,Clear,190,2013-01-07 19:55:00
3:15 PM,35.8,21.0,55,30.17,10.0,SSW,10.4,-,N/A,,Clear,200,2013-01-07 20:15:00
3:34 PM,35.6,20.7,55,30.18,10.0,SSW,13.8,20.7,N/A,,Clear,210,2013-01-07 20:34:00
3:55 PM,35.6,20.7,55,30.17,10.0,South,15.0,20.7,N/A,,Clear,190,2013-01-07 20:55:00
4:14 PM,35.6,21.0,55,30.17,10.0,South,11.5,-,N/A,,Clear,190,2013-01-07 21:14:00
4:34 PM,34.7,21.2,58,30.17,10.0,SSW,11.5,16.1,N/A,,Clear,200,2013-01-07 21:34:00
4:55 PM,33.8,21.7,61,30.17,10.0,South,15.0,19.6,N/A,,Clear,190,2013-01-07 21:55:00
5:14 PM,32.5,22.1,65,30.16,10.0,South,16.1,-,N/A,,Clear,190,2013-01-07 22:14:00
5:34 PM,32.0,22.1,67,30.16,10.0,South,15.0,19.6,N/A,,Clear,190,2013-01-07 22:34:00
6:14 PM,30.9,22.1,70,30.16,10.0,South,11.5,-,N/A,,Clear,190,2013-01-07 23:14:00
6:35 PM,30.6,22.1,71,30.15,10.0,South,15.0,19.6,N/A,,Clear,190,2013-01-07 23:35:00
6:55 PM,30.6,22.1,71,30.15,10.0,South,10.4,18.4,N/A,,Clear,190,2013-01-07 23:55:00
7:14 PM,30.2,22.1,72,30.15,10.0,South,12.7,17.3,N/A,,Clear,190,2013-01-08 00:14:00
7:35 PM,30.2,22.5,73,30.14,10.0,South,15.0,19.6,N/A,,Clear,190,2013-01-08 00:35:00
7:55 PM,30.2,22.5,73,30.13,10.0,South,15.0,23.0,N/A,,Clear,190,2013-01-08 00:55:00
8:14 PM,30.2,22.1,72,30.12,10.0,South,13.8,17.3,N/A,,Clear,190,2013-01-08 01:14:00
8:35 PM,30.0,22.1,72,30.12,10.0,SSW,10.4,-,N/A,,Clear,200,2013-01-08 01:35:00
8:55 PM,30.2,21.7,71,30.11,10.0,SSW,13.8,18.4,N/A,,Clear,200,2013-01-08 01:55:00
9:14 PM,30.2,21.6,70,30.11,10.0,South,11.5,21.9,N/A,,Clear,190,2013-01-08 02:14:00
9:35 PM,29.8,21.4,71,30.11,10.0,SSW,8.1,-,N/A,,Clear,210,2013-01-08 02:35:00
9:54 PM,29.5,21.0,71,30.11,10.0,SSW,10.4,-,N/A,,Clear,200,2013-01-08 02:54:00
10:35 PM,29.3,20.7,70,30.11,10.0,SSW,6.9,-,N/A,,Clear,210,2013-01-08 03:35:00
10:54 PM,29.3,20.3,69,30.11,10.0,SSW,5.8,-,N/A,,Clear,210,2013-01-08 03:54:00
11:15 PM,28.4,19.9,71,30.12,10.0,SSW,6.9,-,N/A,,Clear,210,2013-01-08 04:15:00
11:54 PM,28.0,19.9,72,30.12,10.0,SSW,5.8,-,N/A,,Clear,200,2013-01-08 04:54:00